CW0146 Weather Reports


Display with metric or nautical units.
time (UTC)temp
F
wind
direction
speed
MPH
gust
MPH
rain 1hr
in
rain 24hr
in
rain mn
in
humidity
%
barometer
mb
20260507122455 59 0 2.0 4.0 0.00 0.00 0.00 93 1018.0
20260507121954 58 56 1.0 2.0 0.00 0.00 0.00 93 1018.0
20260507121456 58 94 1.0 2.0 0.00 0.00 0.00 93 1017.0
20260507120955 58 75 1.0 3.0 0.00 0.00 0.00 93 1017.0
20260507120454 58 81 2.0 2.0 0.00 0.00 0.00 93 1017.0
20260507115954 58 77 2.0 5.0 0.00 0.00 0.00 93 1017.0
20260507115455 58 64 2.0 3.0 0.00 0.00 0.00 93 1017.0
20260507114954 58 41 2.0 2.0 0.00 0.00 0.00 93 1017.0
20260507114454 58 331 2.0 4.0 0.00 0.00 0.00 93 1017.0
20260507113955 58 80 2.0 3.0 0.00 0.00 0.00 93 1017.0
20260507113454 58 42 2.0 2.0 0.00 0.00 0.00 93 1017.0
20260507112954 58 65 2.0 3.0 0.00 0.00 0.00 93 1017.0
20260507112455 58 70 2.0 4.0 0.00 0.00 0.00 93 1017.0
20260507111954 58 90 1.0 2.0 0.00 0.00 0.00 93 1017.0
20260507111455 58 55 2.0 3.0 0.00 0.00 0.00 92 1017.0
20260507110955 58 34 2.0 4.0 0.00 0.00 0.00 92 1017.0
20260507110454 58 29 2.0 3.0 0.00 0.00 0.00 92 1017.0
20260507105954 58 57 2.0 4.0 0.00 0.00 0.00 92 1017.0
20260507105454 58 16 2.0 4.0 0.00 0.00 0.00 92 1017.0
20260507104955 58 359 1.0 2.0 0.00 0.00 0.00 92 1017.0
20260507104454 58 51 1.0 2.0 0.00 0.00 0.00 92 1017.0
20260507103954 58 73 1.0 3.0 0.00 0.00 0.00 92 1017.0
20260507103454 58 70 2.0 4.0 0.00 0.00 0.00 92 1016.0
20260507102954 58 68 2.0 2.0 0.00 0.00 0.00 92 1017.0
20260507102454 58 34 2.0 4.0 0.00 0.00 0.00 92 1017.0
20260507101954 58 29 2.0 3.0 0.00 0.00 0.00 91 1017.0
20260507101454 58 60 2.0 4.0 0.00 0.00 0.00 91 1017.0
20260507100954 59 1 2.0 3.0 0.00 0.00 0.00 91 1017.0
20260507100454 59 85 2.0 3.0 0.00 0.00 0.00 91 1017.0
20260507095955 59 82 1.0 3.0 0.00 0.00 0.00 91 1017.0
20260507095454 59 69 2.0 4.0 0.00 0.00 0.00 91 1017.0
20260507094954 59 84 1.0 2.0 0.00 0.00 0.00 91 1017.0
20260507094454 59 284 1.0 4.0 0.00 0.00 0.00 91 1017.0
20260507093955 59 78 1.0 2.0 0.00 0.00 0.00 91 1017.0
20260507093454 59 102 1.0 2.0 0.00 0.00 0.00 90 1017.0
20260507092955 59 87 1.0 3.0 0.00 0.00 0.00 90 1017.0
20260507092455 59 95 1.0 2.0 0.00 0.00 0.00 90 1017.0
20260507091954 59 60 1.0 3.0 0.00 0.00 0.00 90 1017.0
20260507091454 59 88 1.0 2.0 0.00 0.00 0.00 90 1017.0
20260507090954 59 83 2.0 4.0 0.00 0.00 0.00 90 1016.0
20260507090454 59 99 1.0 3.0 0.00 0.00 0.00 90 1016.0
20260507085954 59 95 1.0 2.0 0.00 0.00 0.00 90 1016.0
20260507085454 59 107 1.0 2.0 0.00 0.00 0.00 89 1016.0
20260507084954 59 71 2.0 4.0 0.00 0.00 0.00 89 1016.0
20260507084455 59 23 2.0 4.0 0.00 0.00 0.00 89 1016.0
20260507083954 59 75 1.0 2.0 0.00 0.00 0.00 89 1016.0
20260507083454 59 58 1.0 2.0 0.00 0.00 0.00 89 1016.0
20260507082954 59 95 1.0 2.0 0.00 0.00 0.00 89 1016.0
20260507082454 59 82 2.0 3.0 0.00 0.00 0.00 89 1015.0
20260507081954 59 94 1.0 2.0 0.00 0.00 0.00 89 1016.0
20260507081455 59 90 2.0 3.0 0.00 0.00 0.00 89 1016.0
20260507080954 59 84 2.0 3.0 0.00 0.00 0.00 89 1016.0
20260507080455 59 80 2.0 3.0 0.00 0.00 0.00 89 1016.0
20260507075954 59 73 1.0 2.0 0.00 0.00 0.00 89 1015.0
20260507075454 59 92 1.0 2.0 0.00 0.00 0.00 89 1015.0
20260507074954 59 77 2.0 3.0 0.00 0.00 0.00 88 1015.0
20260507074454 59 65 2.0 3.0 0.00 0.00 0.00 88 1016.0
20260507073959 59 79 2.0 4.0 0.00 0.00 0.00 88 1016.0
20260507073454 60 86 2.0 4.0 0.00 0.00 0.00 88 1015.0
20260507072954 60 78 2.0 4.0 0.00 0.00 0.00 88 1015.0
20260507072454 60 87 2.0 2.0 0.00 0.00 0.00 88 1015.0
20260507071954 60 75 2.0 3.0 0.00 0.00 0.00 88 1015.0
20260507071454 60 93 2.0 2.0 0.00 0.00 0.00 87 1016.0
20260507070955 60 83 2.0 3.0 0.00 0.00 0.00 87 1016.0
20260507070454 60 80 2.0 4.0 0.00 0.00 0.00 87 1016.0
20260507065954 60 86 2.0 2.0 0.00 0.00 0.00 87 1016.0
20260507065454 60 99 1.0 2.0 0.00 0.00 0.00 86 1015.0
20260507064954 60 89 1.0 2.0 0.00 0.00 0.00 86 1015.0
20260507064454 60 92 1.0 2.0 0.00 0.00 0.00 86 1015.0
20260507063954 60 63 2.0 4.0 0.00 0.00 0.00 85 1015.0
20260507063455 60 90 2.0 3.0 0.00 0.00 0.00 85 1015.0
20260507062954 60 90 1.0 2.0 0.00 0.00 0.00 85 1016.0
20260507062454 60 88 2.0 2.0 0.00 0.00 0.00 85 1015.0
20260507061955 61 81 2.0 3.0 0.00 0.00 0.00 85 1015.0
20260507061454 61 87 2.0 3.0 0.00 0.00 0.00 85 1015.0
20260507060954 61 106 1.0 2.0 0.00 0.00 0.00 85 1016.0
20260507060454 61 89 2.0 2.0 0.00 0.00 0.00 85 1016.0
20260507055954 61 94 1.0 2.0 0.00 0.00 0.00 85 1016.0
20260507055454 61 91 1.0 2.0 0.00 0.00 0.00 85 1015.0
20260507054954 61 83 1.0 2.0 0.00 0.00 0.00 85 1015.0
20260507054454 61 84 1.0 2.0 0.00 0.00 0.00 85 1015.0
20260507053957 61 94 2.0 4.0 0.00 0.00 0.00 84 1015.0
20260507053454 61 80 2.0 3.0 0.00 0.00 0.00 84 1015.0
20260507052954 61 97 1.0 2.0 0.00 0.00 0.00 84 1015.0
20260507052454 61 80 1.0 3.0 0.00 0.00 0.00 84 1015.0
20260507051954 61 104 1.0 2.0 0.00 0.00 0.00 84 1015.0
20260507051454 61 59 1.0 3.0 0.00 0.00 0.00 84 1015.0
20260507050954 61 77 3.0 5.0 0.00 0.00 0.00 84 1016.0
20260507050453 61 93 2.0 4.0 0.00 0.00 0.00 84 1016.0
20260507045955 61 76 2.0 4.0 0.00 0.00 0.00 84 1015.0
20260507045455 61 92 2.0 5.0 0.00 0.00 0.00 85 1015.0
20260507044954 61 46 1.0 2.0 0.00 0.00 0.00 85 1016.0
20260507044454 62 49 2.0 4.0 0.00 0.00 0.00 84 1016.0
20260507043954 62 104 1.0 2.0 0.00 0.00 0.00 84 1015.0
20260507043454 62 63 2.0 3.0 0.00 0.00 0.00 84 1015.0
20260507042954 62 116 0.0 2.0 0.00 0.00 0.00 84 1015.0
20260507042454 62 54 1.0 3.0 0.00 0.00 0.00 85 1015.0
20260507041954 62 99 1.0 2.0 0.00 0.00 0.00 85 1016.0
20260507041455 62 77 2.0 4.0 0.00 0.00 0.00 85 1016.0
20260507040954 62 83 1.0 3.0 0.00 0.00 0.00 85 1015.0
20260507040454 62 64 1.0 2.0 0.00 0.00 0.00 85 1016.0
20260507035954 62 104 1.0 2.0 0.00 0.00 0.00 86 1016.0
20260507035455 62 93 1.0 2.0 0.00 0.00 0.00 86 1016.0
20260507034955 62 72 1.0 2.0 0.00 0.00 0.00 86 1016.0
20260507034457 62 94 1.0 2.0 0.00 0.00 0.00 86 1016.0
20260507033954 62 85 1.0 2.0 0.00 0.00 0.00 86 1015.0
20260507033454 62 63 2.0 3.0 0.00 0.00 0.00 86 1015.0
20260507032954 62 61 1.0 2.0 0.00 0.00 0.00 86 1015.0
20260507032454 62 335 1.0 2.0 0.00 0.00 0.00 86 1015.0
20260507031956 62 350 1.0 2.0 0.00 0.00 0.00 86 1015.0
20260507031454 62 21 1.0 3.0 0.00 0.00 0.00 86 1015.0
20260507030954 62 44 1.0 2.0 0.00 0.00 0.00 86 1015.0
20260507030454 62 6 1.0 4.0 0.00 0.00 0.00 85 1015.0
20260507025954 62 62 1.0 2.0 0.00 0.00 0.00 85 1015.0
20260507025454 62 77 1.0 2.0 0.00 0.00 0.00 85 1015.0
20260507024954 62 77 1.0 3.0 0.00 0.00 0.00 85 1015.0
20260507024454 62 32 1.0 2.0 0.00 0.00 0.00 85 1015.0
20260507023954 62 19 2.0 4.0 0.00 0.00 0.00 85 1015.0
20260507023454 62 0 2.0 4.0 0.00 0.00 0.00 85 1015.0
20260507022954 62 29 1.0 3.0 0.00 0.00 0.00 85 1015.0
20260507022454 62 69 1.0 2.0 0.00 0.00 0.00 85 1015.0
20260507021955 62 76 1.0 2.0 0.00 0.00 0.00 84 1014.0
20260507021456 62 79 2.0 6.0 0.00 0.00 0.00 84 1014.0
20260507020954 62 342 2.0 4.0 0.00 0.00 0.00 84 1015.0
20260507020454 62 11 1.0 3.0 0.00 0.00 0.00 85 1014.0
20260507015954 62 28 1.0 3.0 0.00 0.00 0.00 84 1014.0
20260507015454 62 0 2.0 4.0 0.00 0.00 0.00 84 1014.0
20260507014953 62 48 1.0 2.0 0.00 0.00 0.00 84 1014.0
20260507014456 62 81 2.0 3.0 0.00 0.00 0.00 84 1014.0
20260507013954 62 5 2.0 4.0 0.00 0.00 0.00 84 1014.0
20260507013454 62 7 1.0 3.0 0.00 0.00 0.00 84 1014.0
20260507012956 62 50 1.0 4.0 0.00 0.00 0.00 84 1014.0
20260507012454 62 353 1.0 3.0 0.00 0.00 0.00 84 1014.0
20260507011954 62 352 2.0 3.0 0.00 0.00 0.00 84 1014.0
20260507011454 62 26 1.0 2.0 0.00 0.00 0.00 83 1014.0
20260507010954 63 14 2.0 6.0 0.00 0.00 0.00 83 1014.0
20260507010454 63 7 1.0 2.0 0.00 0.00 0.00 83 1014.0
20260507005954 63 57 1.0 3.0 0.00 0.00 0.00 84 1013.0
20260507005454 63 39 1.0 2.0 0.00 0.00 0.00 83 1013.0
20260507004954 63 43 1.0 2.0 0.00 0.00 0.00 83 1013.0
20260507004454 63 316 2.0 4.0 0.00 0.00 0.00 83 1013.0
20260507003954 63 344 2.0 4.0 0.00 0.00 0.00 83 1013.0
20260507003456 63 337 1.0 2.0 0.00 0.00 0.00 83 1013.0
20260507002954 63 2 2.0 5.0 0.00 0.00 0.00 83 1013.0
20260507002454 62 355 1.0 2.0 0.00 0.00 0.00 83 1013.0
20260507001954 62 18 1.0 2.0 0.00 0.00 0.00 83 1013.0
20260507001455 62 13 2.0 4.0 0.00 0.00 0.00 83 1013.0
20260507000954 62 34 1.0 2.0 0.00 0.00 0.00 83 1013.0
20260507000454 62 321 1.0 6.0 0.00 0.00 0.00 83 1013.0
20260506235954 62 337 1.0 4.0 0.00 0.00 0.00 83 1013.0
20260506235454 62 0 1.0 3.0 0.00 0.00 0.00 83 1013.0
20260506234954 62 331 2.0 6.0 0.00 0.00 0.00 83 1013.0
20260506234455 62 1 1.0 4.0 0.00 0.00 0.00 83 1013.0
20260506233954 62 341 2.0 5.0 0.00 0.00 0.00 83 1013.0
20260506233455 62 339 2.0 4.0 0.00 0.00 0.00 83 1013.0
20260506232954 62 28 1.0 4.0 0.00 0.00 0.00 83 1013.0
20260506232454 62 54 2.0 4.0 0.00 0.00 0.00 83 1013.0
20260506231955 62 336 3.0 4.0 0.00 0.00 0.00 83 1013.0
20260506231454 62 14 2.0 3.0 0.00 0.00 0.00 83 1013.0
20260506230954 62 21 1.0 3.0 0.00 0.00 0.00 83 1013.0
20260506230454 62 311 1.0 3.0 0.00 0.00 0.00 83 1013.0
20260506225954 62 354 2.0 4.0 0.00 0.00 0.00 83 1013.0
20260506225455 62 357 2.0 6.0 0.00 0.00 0.00 83 1013.0
20260506224954 62 38 1.0 2.0 0.00 0.00 0.00 83 1013.0
20260506224456 62 42 2.0 4.0 0.00 0.00 0.00 83 1013.0
20260506223954 62 348 2.0 5.0 0.00 0.00 0.00 83 1013.0
20260506223455 62 356 2.0 6.0 0.00 0.00 0.00 84 1013.0
20260506222954 62 349 4.0 8.0 0.00 0.00 0.00 83 1013.0
20260506222454 62 334 2.0 5.0 0.00 0.00 0.00 83 1013.0
20260506221954 62 8 2.0 5.0 0.00 0.00 0.00 83 1013.0
20260506221454 62 67 2.0 3.0 0.00 0.00 0.00 83 1013.0
20260506220957 63 356 2.0 5.0 0.00 0.00 0.00 82 1013.0
20260506220454 63 31 2.0 6.0 0.00 0.00 0.00 82 1013.0
20260506215954 63 5 2.0 5.0 0.00 0.00 0.00 81 1013.0
20260506215454 63 40 1.0 3.0 0.00 0.00 0.00 81 1013.0
20260506214955 63 348 2.0 6.0 0.00 0.00 0.00 81 1013.0
20260506214455 64 353 2.0 6.0 0.00 0.00 0.00 81 1012.0
20260506213954 63 5 1.0 3.0 0.00 0.00 0.00 81 1013.0
20260506213454 64 11 2.0 4.0 0.00 0.00 0.00 81 1013.0
20260506212954 63 309 3.0 6.0 0.00 0.00 0.00 81 1013.0
20260506212455 63 5 2.0 5.0 0.00 0.00 0.00 81 1013.0
20260506211954 64 338 2.0 6.0 0.00 0.00 0.00 81 1013.0
20260506211454 64 333 3.0 8.0 0.00 0.00 0.00 81 1013.0
20260506210954 64 355 2.0 8.0 0.00 0.00 0.00 81 1013.0
20260506210454 64 332 2.0 6.0 0.00 0.00 0.00 81 1013.0
20260506205954 64 317 2.0 6.0 0.00 0.00 0.00 80 1013.0
20260506205456 64 320 2.0 4.0 0.00 0.00 0.00 81 1013.0
20260506204954 64 300 3.0 6.0 0.00 0.00 0.00 80 1013.0
20260506204454 64 351 1.0 3.0 0.00 0.00 0.00 80 1013.0
20260506203954 65 307 3.0 6.0 0.00 0.00 0.00 79 1013.0
20260506203454 65 326 2.0 4.0 0.00 0.00 0.00 80 1013.0
20260506202954 65 334 3.0 6.0 0.00 0.00 0.00 79 1013.0
20260506202454 66 327 2.0 6.0 0.00 0.00 0.00 79 1013.0
20260506201954 67 338 3.0 8.0 0.00 0.00 0.00 78 1013.0
20260506201454 67 352 3.0 4.0 0.00 0.00 0.00 77 1013.0
20260506200954 68 340 2.0 3.0 0.00 0.00 0.00 78 1013.0
20260506200454 68 336 2.0 5.0 0.00 0.00 0.00 78 1012.0
20260506195955 68 330 3.0 6.0 0.00 0.00 0.00 78 1012.0
20260506195455 68 324 2.0 4.0 0.00 0.00 0.00 78 1012.0
20260506194954 68 311 2.0 5.0 0.00 0.00 0.00 80 1013.0
20260506194454 69 333 4.0 7.0 0.00 0.00 0.00 79 1013.0
20260506193954 69 324 4.0 8.0 0.00 0.00 0.00 78 1012.0
20260506193455 70 329 3.0 5.0 0.00 0.00 0.00 78 1012.0
20260506192954 70 0 2.0 4.0 0.00 0.00 0.00 76 1012.0
20260506192454 71 357 2.0 4.0 0.00 0.00 0.00 77 1012.0
20260506191954 71 340 3.0 7.0 0.00 0.00 0.00 76 1012.0
20260506191455 72 356 2.0 3.0 0.00 0.00 0.00 76 1013.0
20260506190954 72 15 1.0 3.0 0.00 0.00 0.00 75 1013.0
20260506190454 73 16 1.0 5.0 0.00 0.00 0.00 74 1013.0
20260506185954 74 18 0.0 1.0 0.00 0.00 0.00 74 1013.0
20260506185455 74 356 1.0 3.0 0.00 0.00 0.00 75 1013.0
20260506184954 74 347 1.0 4.0 0.00 0.00 0.00 73 1012.0
20260506184454 74 48 2.0 3.0 0.00 0.00 0.00 74 1012.0
20260506183954 75 344 2.0 7.0 0.00 0.00 0.00 72 1012.0
20260506183454 75 291 2.0 4.0 0.00 0.00 0.00 74 1012.0
20260506182954 76 328 2.0 4.0 0.00 0.00 0.00 71 1012.0
20260506182454 75 15 2.0 5.0 0.00 0.00 0.00 73 1012.0
20260506181954 75 319 2.0 4.0 0.00 0.00 0.00 73 1012.0
20260506181454 75 333 2.0 3.0 0.00 0.00 0.00 73 1012.0
20260506180954 74 20 1.0 2.0 0.00 0.00 0.00 75 1012.0
20260506180456 74 51 0.0 1.0 0.00 0.00 0.00 74 1012.0
20260506175954 73 308 1.0 3.0 0.00 0.00 0.00 76 1011.0
20260506175454 71 72 1.0 3.0 0.00 0.00 0.00 78 1011.0
20260506174954 70 311 1.0 3.0 0.00 0.00 0.00 79 1011.0
20260506174454 70 62 3.0 4.0 0.00 0.00 0.00 77 1011.0
20260506173954 69 67 2.0 3.0 0.00 0.00 0.00 79 1011.0
20260506173454 69 51 3.0 5.0 0.00 0.00 0.00 78 1011.0
20260506172954 69 32 2.0 2.0 0.00 0.00 0.00 79 1012.0
20260506172455 69 41 2.0 5.0 0.00 0.00 0.00 80 1012.0
20260506171955 69 54 2.0 3.0 0.00 0.00 0.00 79 1011.0
20260506171456 68 24 1.0 2.0 0.00 0.00 0.00 82 1012.0
20260506170954 67 59 1.0 4.0 0.00 0.00 0.00 83 1011.0
20260506170454 66 56 2.0 4.0 0.00 0.00 0.00 84 1012.0
20260506165954 66 47 2.0 3.0 0.00 0.00 0.00 84 1012.0
20260506165455 66 55 2.0 3.0 0.00 0.00 0.00 85 1012.0
20260506164954 65 66 1.0 2.0 0.00 0.00 0.00 86 1012.0
20260506164454 65 36 1.0 3.0 0.00 0.00 0.00 87 1012.0
20260506163954 64 2 1.0 2.0 0.00 0.00 0.00 89 1012.0
20260506163454 63 80 1.0 2.0 0.00 0.00 0.00 89 1013.0
20260506162954 63 14 1.0 2.0 0.00 0.00 0.00 90 1013.0
20260506162456 62 42 1.0 2.0 0.00 0.00 0.00 91 1013.0
20260506161954 62 63 2.0 4.0 0.00 0.00 0.00 92 1013.0
20260506161453 62 70 2.0 3.0 0.00 0.00 0.00 92 1014.0
20260506160954 62 35 2.0 6.0 0.00 0.00 0.00 93 1014.0
20260506160454 62 2 3.0 7.0 0.00 0.00 0.00 93 1014.0
20260506155955 62 38 2.0 6.0 0.00 0.00 0.00 93 1014.0
20260506155455 63 346 3.0 6.0 0.00 0.00 0.00 93 1014.0
20260506154955 64 2 2.0 6.0 0.00 0.00 0.00 93 1014.0
20260506154454 64 321 3.0 6.0 0.00 0.00 0.00 92 1014.0
20260506153954 64 10 2.0 6.0 0.00 0.00 0.00 92 1014.0
20260506153454 65 344 3.0 9.0 0.00 0.00 0.00 91 1014.0
20260506152954 65 346 3.0 9.0 0.00 0.00 0.00 91 1014.0
20260506152455 66 348 2.0 8.0 0.00 0.00 0.00 90 1013.0
20260506151954 66 14 1.0 3.0 0.00 0.00 0.00 90 1013.0
20260506151454 66 47 2.0 3.0 0.00 0.00 0.00 90 1013.0
20260506150954 67 337 2.0 6.0 0.00 0.00 0.00 90 1013.0
20260506150454 67 16 1.0 3.0 0.00 0.00 0.00 89 1013.0
20260506145954 69 16 2.0 4.0 0.00 0.00 0.00 88 1013.0
20260506145456 70 351 2.0 4.0 0.00 0.00 0.00 87 1012.0
20260506144954 73 340 3.0 6.0 0.00 0.00 0.00 85 1012.0
20260506144457 77 337 3.0 8.0 0.00 0.00 0.00 81 1012.0
20260506143954 79 318 1.0 2.0 0.00 0.00 0.00 85 1011.0
20260506143456 79 210 1.0 2.0 0.00 0.00 0.00 86 1011.0
20260506142954 78 212 1.0 2.0 0.00 0.00 0.00 86 1010.0
20260506142455 78 100 0.0 1.0 0.00 0.00 0.00 87 1010.0
20260506141954 78 80 1.0 2.0 0.00 0.00 0.00 87 1010.0
20260506141454 78 173 1.0 3.0 0.00 0.00 0.00 88 1010.0
20260506140954 78 77 1.0 3.0 0.00 0.00 0.00 88 1010.0
20260506140455 77 170 1.0 3.0 0.00 0.00 0.00 89 1010.0
20260506140000 77 106 0.0 1.0 0.00 0.00 0.00 90 1010.0
20260506135455 77 88 2.0 4.0 0.00 0.00 0.00 90 1010.0
20260506134955 77 55 0.0 1.0 0.00 0.00 0.00 90 1010.0
20260506134455 77 90 2.0 4.0 0.00 0.00 0.00 90 1010.0
20260506133955 76 168 0.0 1.0 0.00 0.00 0.00 90 1010.0
20260506133454 76 189 1.0 3.0 0.00 0.00 0.00 91 1010.0
20260506132955 76 146 1.0 2.0 0.00 0.00 0.00 92 1010.0
20260506132454 76 195 0.0 2.0 0.00 0.00 0.00 92 1010.0
20260506131955 75 133 1.0 3.0 0.00 0.00 0.00 93 1010.0
20260506131454 75 148 1.0 2.0 0.00 0.00 0.00 94 1010.0
20260506130954 75 155 1.0 4.0 0.00 0.00 0.00 94 1010.0
20260506130454 75 49 0.0 2.0 0.00 0.00 0.00 94 1010.0
20260506125954 74 87 1.0 3.0 0.00 0.00 0.00 95 1010.0
20260506125454 74 99 1.0 2.0 0.00 0.00 0.00 95 1010.0
20260506124954 74 89 1.0 2.0 0.00 0.00 0.00 95 1010.0
20260506124454 74 111 0.0 2.0 0.00 0.00 0.00 95 1010.0
20260506123954 74 96 1.0 3.0 0.00 0.00 0.00 95 1010.0
20260506123454 74 75 0.0 2.0 0.00 0.00 0.00 95 1010.0
20260506122954 74 75 1.0 2.0 0.00 0.00 0.00 95 1010.0